• In Latvia
  • List of Countries
  • For 7 days
  • Water Temperature
  • Satellite Maps
  • Weather Map
  • Weather Widgets
  • user-avatar
    Login

    Hourly Weather Kalgoorlie

    Today, 25 May, Thursday

    Time Temperature Precipitation Wind Pressure Humidity
    00:00 +12°C° 0 mm 3 mps 733 mmHg 69%
    01:00 +12°C° 0 mm 3 mps 733 mmHg 72%
    02:00 +12°C° 0 mm 3 mps 733 mmHg 76%
    03:00 +11°C° 0 mm 3 mps 733 mmHg 78%
    04:00 +11°C° 0 mm 3 mps 733 mmHg 79%
    05:00 +11°C° 0 mm 3 mps 733 mmHg 81%
    06:00 +11°C° 0 mm 3 mps 733 mmHg 79%
    07:00 +12°C° 0 mm 3 mps 734 mmHg 77%
    08:00 +13°C° 0 mm 3 mps 734 mmHg 70%
    09:00 +16°C° 0 mm 3 mps 734 mmHg 61%
    10:00 +17°C° 0 mm 3 mps 734 mmHg 52%
    11:00 +19°C° 0 mm 3 mps 733 mmHg 43%
    12:00 +20°C° 0 mm 3 mps 733 mmHg 38%
    13:00 +21°C° 0 mm 3 mps 733 mmHg 34%
    14:00 +22°C° 0 mm 3 mps 732 mmHg 29%
    15:00 +20°C° 0 mm 2 mps 732 mmHg 31%
    16:00 +19°C° 0 mm 2 mps 732 mmHg 33%
    17:00 +17°C° 0 mm 2 mps 732 mmHg 35%
    18:00 +17°C° 0 mm 2 mps 732 mmHg 36%
    19:00 +16°C° 0 mm 2 mps 732 mmHg 36%
    20:00 +16°C° 0 mm 2 mps 732 mmHg 36%
    21:00 +15°C° 0 mm 2 mps 731 mmHg 36%
    22:00 +14°C° 0 mm 3 mps 731 mmHg 36%
    23:00 +14°C° 0 mm 3 mps 731 mmHg 36%

    Tomorrow, 26 May, Friday

    Time Temperature Precipitation Wind Pressure Humidity
    00:00 +13°C° 0 mm 3 mps 731 mmHg 37%
    01:00 +13°C° 0 mm 3 mps 731 mmHg 37%
    02:00 +12°C° 0 mm 3 mps 731 mmHg 38%
    03:00 +12°C° 0 mm 3 mps 731 mmHg 39%
    04:00 +12°C° 0 mm 3 mps 731 mmHg 40%
    05:00 +11°C° 0 mm 3 mps 731 mmHg 41%
    06:00 +12°C° 0 mm 3 mps 731 mmHg 41%
    07:00 +12°C° 0 mm 3 mps 731 mmHg 42%
    08:00 +13°C° 0 mm 3 mps 732 mmHg 43%
    09:00 +16°C° 0 mm 3 mps 732 mmHg 41%
    10:00 +18°C° 0 mm 4 mps 732 mmHg 39%
    11:00 +20°C° 0 mm 4 mps 732 mmHg 37%
    12:00 +20°C° 0 mm 5 mps 731 mmHg 36%
    13:00 +21°C° 0 mm 5 mps 731 mmHg 35%
    14:00 +21°C° 0 mm 5 mps 731 mmHg 34%
    15:00 +20°C° 0 mm 4 mps 731 mmHg 40%
    16:00 +19°C° 0 mm 4 mps 731 mmHg 47%
    17:00 +17°C° 0 mm 4 mps 731 mmHg 54%
    18:00 +16°C° 0 mm 3 mps 732 mmHg 63%
    19:00 +14°C° 0 mm 3 mps 732 mmHg 73%
    20:00 +13°C° 0 mm 3 mps 733 mmHg 83%
    21:00 +13°C° 0 mm 3 mps 733 mmHg 85%
    22:00 +12°C° 0 mm 3 mps 733 mmHg 86%
    23:00 +12°C° 0 mm 3 mps 733 mmHg 88%

    Day after tomorrow, 27 May, Saturday

    Time Temperature Precipitation Wind Pressure Humidity
    00:00 +11°C° 0 mm 3 mps 733 mmHg 87%
    01:00 +10°C° 0 mm 3 mps 733 mmHg 85%
    02:00 +10°C° 0 mm 3 mps 733 mmHg 84%
    03:00 +9°C° 0 mm 3 mps 733 mmHg 84%
    04:00 +9°C° 0 mm 3 mps 733 mmHg 84%
    05:00 +9°C° 0 mm 3 mps 734 mmHg 84%
    06:00 +9°C° 0 mm 3 mps 734 mmHg 84%
    07:00 +9°C° 0 mm 3 mps 735 mmHg 83%
    08:00 +10°C° 0 mm 3 mps 735 mmHg 83%
    09:00 +11°C° 0 mm 3 mps 735 mmHg 76%
    10:00 +13°C° 0 mm 3 mps 735 mmHg 68%
    11:00 +14°C° 0 mm 3 mps 735 mmHg 60%
    12:00 +16°C° 0 mm 3 mps 735 mmHg 56%
    13:00 +16°C° 0 mm 3 mps 734 mmHg 53%
    14:00 +17°C° 0 mm 3 mps 734 mmHg 49%
    15:00 +16°C° 0 mm 3 mps 734 mmHg 51%
    16:00 +14°C° 0 mm 3 mps 734 mmHg 53%
    17:00 +13°C° 0 mm 4 mps 734 mmHg 56%
    18:00 +13°C° 0 mm 4 mps 735 mmHg 57%
    19:00 +12°C° 0 mm 4 mps 736 mmHg 59%
    20:00 +12°C° 0 mm 4 mps 736 mmHg 60%
    21:00 +11°C° 0 mm 3 mps 736 mmHg 63%
    22:00 +10°C° 0 mm 3 mps 737 mmHg 65%
    23:00 +10°C° 0 mm 3 mps 737 mmHg 67%

    28 May, Sunday

    Time Temperature Precipitation Wind Pressure Humidity
    00:00 +9°C° 0 mm 3 mps 737 mmHg 69%
    01:00 +9°C° 0 mm 3 mps 736 mmHg 71%
    02:00 +8°C° 0 mm 3 mps 736 mmHg 72%
    03:00 +8°C° 0 mm 3 mps 736 mmHg 75%
    04:00 +8°C° 0 mm 2 mps 736 mmHg 78%
    05:00 +7°C° 0 mm 2 mps 736 mmHg 81%
    06:00 +8°C° 0 mm 2 mps 737 mmHg 79%
    07:00 +8°C° 0 mm 2 mps 737 mmHg 77%
    08:00 +9°C° 0 mm 2 mps 738 mmHg 76%
    09:00 +12°C° 0 mm 2 mps 738 mmHg 68%
    10:00 +12°C° 0 mm 3 mps 738 mmHg 60%
    11:00 +14°C° 0 mm 3 mps 738 mmHg 52%
    12:00 +15°C° 0 mm 2 mps 737 mmHg 48%
    13:00 +16°C° 0 mm 2 mps 736 mmHg 45%
    14:00 +17°C° 0 mm 2 mps 736 mmHg 42%
    15:00 +16°C° 0 mm 2 mps 736 mmHg 45%
    16:00 +15°C° 0 mm 2 mps 736 mmHg 48%
    17:00 +14°C° 0 mm 2 mps 736 mmHg 50%
    18:00 +13°C° 0 mm 2 mps 736 mmHg 53%
    19:00 +13°C° 0 mm 2 mps 737 mmHg 56%
    20:00 +11°C° 0 mm 3 mps 737 mmHg 59%
    21:00 +11°C° 0 mm 3 mps 737 mmHg 61%
    22:00 +10°C° 0 mm 3 mps 737 mmHg 63%
    23:00 +10°C° 0 mm 3 mps 737 mmHg 65%

    29 May, Monday

    Time Temperature Precipitation Wind Pressure Humidity
    00:00 +9°C° 0 mm 2 mps 737 mmHg 67%
    01:00 +9°C° 0 mm 2 mps 736 mmHg 68%
    02:00 +8°C° 0 mm 2 mps 736 mmHg 70%
    03:00 +8°C° 0 mm 2 mps 736 mmHg 71%
    04:00 +8°C° 0 mm 2 mps 736 mmHg 72%
    05:00 +8°C° 0 mm 3 mps 736 mmHg 73%
    06:00 +8°C° 0 mm 3 mps 736 mmHg 70%
    07:00 +9°C° 0 mm 3 mps 736 mmHg 67%
    08:00 +9°C° 0 mm 3 mps 737 mmHg 65%
    09:00 +11°C° 0 mm 3 mps 737 mmHg 57%
    10:00 +14°C° 0 mm 2 mps 737 mmHg 49%
    11:00 +17°C° 0 mm 2 mps 737 mmHg 42%
    12:00 +17°C° 0 mm 2 mps 736 mmHg 40%
    13:00 +19°C° 0 mm 1 mps 736 mmHg 39%
    14:00 +18°C° 0 mm 0 mps 735 mmHg 38%
    15:00 +19°C° 0 mm 1 mps 735 mmHg 41%
    16:00 +18°C° 0 mm 1 mps 735 mmHg 44%
    17:00 +16°C° 0 mm 2 mps 736 mmHg 47%
    18:00 +15°C° 0 mm 2 mps 736 mmHg 48%
    19:00 +13°C° 0 mm 3 mps 736 mmHg 49%
    20:00 +13°C° 0 mm 3 mps 737 mmHg 50%
    21:00 +12°C° 0 mm 3 mps 737 mmHg 51%
    22:00 +12°C° 0 mm 4 mps 737 mmHg 53%
    23:00 +11°C° 0 mm 4 mps 737 mmHg 54%

    30 May, Tuesday

    Time Temperature Precipitation Wind Pressure Humidity
    00:00 +11°C° 0 mm 4 mps 737 mmHg 55%
    01:00 +10°C° 0 mm 4 mps 737 mmHg 56%
    02:00 +10°C° 0 mm 4 mps 737 mmHg 58%
    03:00 +10°C° 0 mm 4 mps 737 mmHg 60%
    04:00 +8°C° 0 mm 4 mps 737 mmHg 62%
    05:00 +8°C° 0 mm 4 mps 737 mmHg 64%
    06:00 +8°C° 0 mm 4 mps 738 mmHg 63%
    07:00 +9°C° 0 mm 5 mps 738 mmHg 62%
    08:00 +9°C° 0 mm 5 mps 738 mmHg 61%
    09:00 +12°C° 0 mm 5 mps 738 mmHg 55%
    10:00 +14°C° 0 mm 6 mps 738 mmHg 48%
    11:00 +16°C° 0 mm 6 mps 738 mmHg 42%
    12:00 +17°C° 0 mm 6 mps 738 mmHg 40%
    13:00 +19°C° 0 mm 6 mps 737 mmHg 38%
    14:00 +20°C° 0 mm 5 mps 737 mmHg 35%
    15:00 +19°C° 0 mm 5 mps 737 mmHg 39%
    16:00 +17°C° 0 mm 4 mps 737 mmHg 42%
    17:00 +15°C° 0 mm 4 mps 737 mmHg 45%
    18:00 +14°C° 0 mm 4 mps 738 mmHg 47%
    19:00 +14°C° 0 mm 4 mps 738 mmHg 49%
    20:00 +13°C° 0 mm 4 mps 738 mmHg 52%
    21:00 +12°C° 0 mm 5 mps 738 mmHg 53%
    22:00 +12°C° 0 mm 5 mps 738 mmHg 55%
    23:00 +12°C° 0 mm 5 mps 738 mmHg 56%
    Show more